TimeCDT,TemperatureF,Dew PointF,Humidity,Sea Level PressureIn,VisibilityMPH,Wind Direction,Wind SpeedMPH,Gust SpeedMPH,PrecipitationIn,Events,Conditions,WindDirDegrees,DateUTC
12:13 AM,33.8,30.2,87,30.19,10.0,NW,16.1,20.7,N/A,,Overcast,310,2012-10-06 05:13:00
12:33 AM,33.8,28.4,81,30.19,10.0,NW,15.0,23.0,N/A,,Overcast,310,2012-10-06 05:33:00
12:54 AM,33.8,30.2,87,30.19,10.0,NW,15.0,24.2,N/A,,Overcast,310,2012-10-06 05:54:00
1:13 AM,33.8,30.2,87,30.19,10.0,NW,15.0,20.7,N/A,,Overcast,310,2012-10-06 06:13:00
1:33 AM,33.8,30.2,87,30.20,10.0,NW,15.0,18.4,N/A,,Overcast,310,2012-10-06 06:33:00
1:54 AM,33.8,30.2,87,30.20,10.0,NW,11.5,18.4,N/A,,Overcast,310,2012-10-06 06:54:00
2:13 AM,33.8,30.2,87,30.20,10.0,NW,13.8,-,N/A,,Overcast,310,2012-10-06 07:13:00
2:34 AM,33.8,30.2,87,30.20,10.0,NW,15.0,-,N/A,,Overcast,310,2012-10-06 07:34:00
2:53 AM,33.8,30.2,87,30.20,10.0,NW,12.7,17.3,N/A,,Overcast,310,2012-10-06 07:53:00
3:13 AM,33.8,30.2,87,30.21,10.0,NW,11.5,-,N/A,,Overcast,310,2012-10-06 08:13:00
3:34 AM,33.8,30.2,87,30.21,7.0,NW,11.5,-,N/A,Snow,Light Snow,310,2012-10-06 08:34:00
3:53 AM,33.8,30.2,87,30.21,10.0,NW,13.8,-,N/A,,Overcast,320,2012-10-06 08:53:00
4:14 AM,33.8,30.2,87,30.21,10.0,NNW,13.8,18.4,N/A,,Overcast,330,2012-10-06 09:14:00
4:33 AM,33.8,30.2,87,30.22,10.0,NW,10.4,-,N/A,,Overcast,310,2012-10-06 09:33:00
4:53 AM,33.8,30.2,87,30.22,10.0,NW,11.5,17.3,N/A,,Overcast,320,2012-10-06 09:53:00
5:13 AM,33.8,28.4,81,30.22,10.0,NW,12.7,-,N/A,,Overcast,320,2012-10-06 10:13:00
5:33 AM,33.8,28.4,81,30.23,10.0,NW,9.2,-,N/A,,Overcast,320,2012-10-06 10:33:00
5:54 AM,33.8,28.4,81,30.23,10.0,NW,12.7,-,N/A,,Overcast,320,2012-10-06 10:54:00
6:13 AM,33.8,28.4,81,30.24,10.0,NNW,9.2,-,N/A,,Overcast,330,2012-10-06 11:13:00
6:33 AM,33.8,28.4,81,30.24,10.0,NW,11.5,-,N/A,,Overcast,320,2012-10-06 11:33:00
6:54 AM,33.8,28.4,81,30.25,10.0,NNW,11.5,18.4,N/A,,Mostly Cloudy,330,2012-10-06 11:54:00
7:13 AM,33.8,26.6,75,30.26,10.0,NNW,9.2,-,N/A,,Scattered Clouds,330,2012-10-06 12:13:00
7:34 AM,33.8,26.6,75,30.26,10.0,NNW,10.4,-,N/A,,Overcast,330,2012-10-06 12:34:00
7:54 AM,33.8,28.4,81,30.27,10.0,NNW,11.5,-,N/A,,Overcast,330,2012-10-06 12:54:00
8:33 AM,33.8,26.6,75,30.28,10.0,NW,10.4,-,N/A,,Overcast,310,2012-10-06 13:33:00
9:13 AM,33.8,28.4,81,30.30,10.0,NW,11.5,-,N/A,,Overcast,310,2012-10-06 14:13:00
9:34 AM,35.6,26.6,70,30.30,10.0,NW,13.8,-,N/A,,Overcast,310,2012-10-06 14:34:00
9:53 AM,35.6,24.8,65,30.31,10.0,NW,13.8,18.4,N/A,,Overcast,320,2012-10-06 14:53:00
10:13 AM,35.6,23.0,60,30.31,10.0,NNW,10.4,13.8,N/A,,Overcast,340,2012-10-06 15:13:00
10:34 AM,35.6,24.8,65,30.32,10.0,NW,10.4,-,N/A,,Overcast,320,2012-10-06 15:34:00
10:53 AM,35.6,24.8,65,30.32,10.0,North,9.2,-,N/A,,Overcast,360,2012-10-06 15:53:00
11:13 AM,35.6,24.8,65,30.32,10.0,North,11.5,-,N/A,,Overcast,350,2012-10-06 16:13:00
11:34 AM,37.4,23.0,56,30.32,10.0,NNE,9.2,-,N/A,,Overcast,20,2012-10-06 16:34:00
11:53 AM,37.4,23.0,56,30.32,10.0,NW,9.2,-,N/A,,Overcast,320,2012-10-06 16:53:00
12:13 PM,37.4,21.2,52,30.31,10.0,North,8.1,-,N/A,,Mostly Cloudy,350,2012-10-06 17:13:00
12:34 PM,39.2,21.2,49,30.31,10.0,NNW,9.2,17.3,N/A,,Mostly Cloudy,340,2012-10-06 17:34:00
12:53 PM,39.2,21.2,49,30.31,10.0,NNW,9.2,-,N/A,,Mostly Cloudy,330,2012-10-06 17:53:00
1:13 PM,42.8,21.2,42,30.30,10.0,North,9.2,-,N/A,,Mostly Cloudy,360,2012-10-06 18:13:00
1:34 PM,41.0,21.2,45,30.30,10.0,North,9.2,-,N/A,,Mostly Cloudy,350,2012-10-06 18:34:00
1:53 PM,41.0,21.2,45,30.30,10.0,NNW,11.5,-,N/A,,Overcast,340,2012-10-06 18:53:00
2:13 PM,42.8,21.2,42,30.29,10.0,NNW,13.8,18.4,N/A,,Overcast,330,2012-10-06 19:13:00
2:34 PM,42.8,19.4,39,30.28,10.0,North,9.2,-,N/A,,Overcast,350,2012-10-06 19:34:00
2:53 PM,42.8,21.2,42,30.28,10.0,NW,4.6,10.4,N/A,,Overcast,320,2012-10-06 19:53:00
3:13 PM,42.8,21.2,42,30.27,10.0,North,4.6,-,N/A,,Overcast,350,2012-10-06 20:13:00
3:34 PM,44.6,21.2,39,30.27,10.0,NW,8.1,-,N/A,,Mostly Cloudy,320,2012-10-06 20:34:00
3:53 PM,42.8,21.2,42,30.26,10.0,NW,11.5,-,N/A,,Mostly Cloudy,320,2012-10-06 20:53:00
4:13 PM,44.6,21.2,39,30.26,10.0,WNW,9.2,-,N/A,,Mostly Cloudy,290,2012-10-06 21:13:00
4:34 PM,42.8,21.2,42,30.25,10.0,WNW,6.9,-,N/A,,Mostly Cloudy,300,2012-10-06 21:34:00
4:53 PM,44.6,21.2,39,30.25,10.0,NW,11.5,-,N/A,,Mostly Cloudy,310,2012-10-06 21:53:00
5:13 PM,42.8,21.2,42,30.25,10.0,NNW,6.9,-,N/A,,Scattered Clouds,330,2012-10-06 22:13:00
5:34 PM,42.8,21.2,42,30.24,10.0,NNW,5.8,-,N/A,,Scattered Clouds,330,2012-10-06 22:34:00
5:53 PM,42.8,19.4,39,30.24,10.0,NNW,9.2,-,N/A,,Scattered Clouds,330,2012-10-06 22:53:00
6:14 PM,41.0,21.2,45,30.24,10.0,WNW,10.4,-,N/A,,Clear,300,2012-10-06 23:14:00
6:33 PM,39.2,21.2,49,30.24,10.0,NW,6.9,-,N/A,,Clear,310,2012-10-06 23:33:00
6:53 PM,35.6,21.2,56,30.24,10.0,WNW,6.9,-,N/A,,Clear,300,2012-10-06 23:53:00
7:13 PM,33.8,19.4,56,30.25,10.0,WNW,5.8,-,N/A,,Clear,300,2012-10-07 00:13:00
7:33 PM,33.8,19.4,56,30.25,10.0,WNW,5.8,-,N/A,,Clear,290,2012-10-07 00:33:00
7:53 PM,33.8,21.2,60,30.25,10.0,WNW,5.8,-,N/A,,Clear,290,2012-10-07 00:53:00
8:13 PM,32.0,19.4,60,30.25,10.0,WNW,5.8,-,N/A,,Clear,300,2012-10-07 01:13:00
8:33 PM,32.0,21.2,64,30.25,10.0,West,5.8,-,N/A,,Clear,280,2012-10-07 01:33:00
8:53 PM,32.0,21.2,64,30.25,10.0,West,4.6,-,N/A,,Clear,280,2012-10-07 01:53:00
9:14 PM,30.2,21.2,69,30.25,10.0,West,4.6,-,N/A,,Clear,280,2012-10-07 02:14:00
9:33 PM,30.2,21.2,69,30.25,10.0,West,4.6,-,N/A,,Clear,260,2012-10-07 02:33:00
9:53 PM,30.2,21.2,69,30.25,10.0,WSW,4.6,-,N/A,,Clear,250,2012-10-07 02:53:00
10:14 PM,28.4,21.2,74,30.24,10.0,WSW,4.6,-,N/A,,Clear,250,2012-10-07 03:14:00
10:33 PM,26.6,21.2,80,30.24,10.0,WSW,5.8,-,N/A,,Clear,240,2012-10-07 03:33:00
10:53 PM,30.2,23.0,75,30.24,10.0,WSW,4.6,-,N/A,,Clear,240,2012-10-07 03:53:00
11:14 PM,26.6,23.0,86,30.23,10.0,WSW,5.8,-,N/A,,Clear,240,2012-10-07 04:14:00
11:33 PM,26.6,23.0,86,30.23,10.0,SW,5.8,-,N/A,,Clear,230,2012-10-07 04:33:00